sat.trackr.live / text

‹ back to catalog

VIZARD-METEO (RS38S)

NORAD 57189 · 2023-091Z

PAYLOAD ACTIVE UNKNOWN

§ Identity

Operator
Country
CIS
Launch date
2023-06-27
Launch site
VOSTO
Launch vehicle
Mass (kg)
RCS (m²)

Purposes: comms

External: N2YO · Heavens-Above · Gunter

§ Orbital elements

Epoch: 2026-05-25T03:29:23.872416Z

Period
93.80 min
Inclination
97.5102°
Eccentricity
0.0008600
Mean motion
15.35175326 rev/d
Perigee alt
454.5 km
Apogee alt
466.3 km
Semi-major
6,838.5 km
B*
4.7861e-4
RAAN
214.1819°
Arg perigee
146.1328°
Mean anomaly
214.0466°
Rev number
16,115

§ Raw data

VIZARD-METEO (RS38S)1 57189U 23091Z   26145.14541519  .00016293  00000+0  47861-3 0  99922 57189  97.5102 214.1819 0008600 146.1328 214.0466 15.35175326161156

JSON: /api/v1/satellites/57189 · /tle

For live sub-satellite position, see the globe view (requires WebGL).

§ Visibility from observer

Set your observer location to see the next 7 days of passes ≥ 10°. The values pass through the URL so the page stays shareable.

No JS? Fill the form by hand. The geolocation button needs JavaScript.

§ Radio — SatNOGS DB

ModeDescriptionDownlinkUplink
GMSK USP Mode U - GMSK 2k4 (USP FEC) TLM 437.825 MHz
SSTV SSTV - Robot 72 437.825 MHz

2 transmitters · refreshed weekly from db.satnogs.org